Regional Weather Roundup
Issued by NWS

Home | Current Version | Previous Version | Text Only | Print | Product List | Glossary On
Versions: 1 2 3 4 5 6 7 8 9 10 11 12 13 14 15 16 17 18 19 20 21 22 23 24 25 26 27 28 29 30 31 32 33 34 35 36 37 38 39 40 41 42 43 44 45 46 47 48 49 50
194
ASUS44 KLIX 220605
RWRLA
LOUISIANA WEATHER ROUNDUP
NATIONAL WEATHER SERVICE NEW ORLEANS LA
100 AM CDT WED OCT 22 2014

NOTE: "FAIR" INDICATES FEW OR NO CLOUDS BELOW 12,000 FEET WITH NO
      SIGNIFICANT WEATHER AND/OR OBSTRUCTIONS TO VISIBILITY.
      SKY/WX - SKY CONDITION AND SIGNIFICANT WEATHER.
      TMP - AIR TEMPERATURE.    DP   - DEWPOINT TEMPERATURE.
      RH  - RELATIVE HUMIDITY.  PRES - PRESSURE.
      HX  - HEAT INDEX.         WCI  - WIND CHILL INDEX.

*  THESE STATIONS ARE NOT NWS OR FAA STATIONS AND ARE NOT UNDER
   NWS QUALITY CONTROL.

LAZ040-048-061>063-065-066-069-220700-
SOUTHEAST LOUISIANA

CITY           SKY/WX    TMP DP  RH WIND       PRES   REMARKS
N.O. AUDUBON     N/A     62  61  97 MISG        N/A
6HR MIN TEMP:  62; 6HR MAX TEMP:  72;

N.O. INTL ARPT CLEAR     64  56  75 CALM      30.02F
6HR MIN TEMP:  62; 6HR MAX TEMP:  74;

N.O. LAKEFRONT CLEAR     72  61  68 NE9       30.02F
6HR MIN TEMP:  69; 6HR MAX TEMP:  75;

N.O. DOWNTOWN* FAIR      70  55  60 CALM      30.02F
6HR MIN TEMP:  70; 6HR MAX TEMP:  77;

SLIDELL        CLEAR     55  52  89 N6        30.02F
6HR MIN TEMP:  55; 6HR MAX TEMP:  68;

BATON ROUGE    CLEAR     61  57  87 N3        30.03F
6HR MIN TEMP:  59; 6HR MAX TEMP:  70;

BOOTHVILLE     CLEAR     68  64  87 N3        30.01F
6HR MIN TEMP:  65; 6HR MAX TEMP:  72;

BELLE CHASSE   CLEAR     56  53  90 N3        30.01F
6HR MIN TEMP:  56; 6HR MAX TEMP:  65;

BOGALUSA*        N/A     55  52  90 CALM      30.05F FOG
6HR MIN TEMP:  55; 6HR MAX TEMP:  69;

NEW ROADS*     FAIR      59  58  94 CALM      30.04F
6HR MIN TEMP:  59; 6HR MAX TEMP:  70;

GONZALES*      FAIR      59  59 100 CALM      30.02F
6HR MIN TEMP:  59; 6HR MAX TEMP:  66;

HAMMOND*       CLEAR     57  54  88 N5        30.05S
HOUMA*         CLEAR     55  54  94 CALM      30.02S
6HR MIN TEMP:  55; 6HR MAX TEMP:  66;

PORT FOURCHON* CLEAR     70  64  83 NE5       30.04S

$$

LAZ041-044-053-054-220700-
SOUTHWEST LOUISIANA

CITY           SKY/WX    TMP DP  RH WIND       PRES   REMARKS
LAKE CHARLES   CLEAR     61  60  97 CALM      30.04S FOG
6HR MIN TEMP:  61; 6HR MAX TEMP:  69;

LAFAYETTE      CLEAR     61  58  90 CALM      30.04S
6HR MIN TEMP:  61; 6HR MAX TEMP:  71;

PATTERSON      CLEAR     61  57  88 CALM      30.05S
6HR MIN TEMP:  59; 6HR MAX TEMP:  66;

SALT POINT       N/A     65  60  84 CALM      30.02S
6HR MIN TEMP:  65; 6HR MAX TEMP:  72;

NEW IBERIA     CLEAR     66  60  81 NE9       30.03F
6HR MIN TEMP:  66; 6HR MAX TEMP:  71;

CHENAULT AIRPK CLEAR     63  61  93 CALM      30.04F
6HR MIN TEMP:  62; 6HR MAX TEMP:  73;


$$

LAZ027-028-220700-
CENTRAL LOUISIANA

CITY           SKY/WX    TMP DP  RH WIND       PRES   REMARKS
FORT POLK      CLEAR     61  59  95 NE3       30.05S
6HR MIN TEMP:  61; 6HR MAX TEMP:  69; 6HR PCP: TRACE;

ALEXANDRIA INT CLEAR     64  60  87 NE6       30.04S
6HR MIN TEMP:  62; 6HR MAX TEMP:  71;

ALEXANDRIA     PTCLDY    58  57  97 CALM      30.06S
6HR MIN TEMP:  57; 6HR MAX TEMP:  68;


$$

LAZ001-002-220700-
NORTHWEST LOUISIANA

CITY           SKY/WX    TMP DP  RH WIND       PRES   REMARKS
SHREVEPORT     CLEAR     61  59  93 CALM      30.07S
6HR MIN TEMP:  61; 6HR MAX TEMP:  75;

BARKSDALE AFB  CLEAR     61  60  97 NE2       30.07F
6HR MIN TEMP:  60; 6HR MAX TEMP:  70;

DTN SHREVEPORT CLEAR     60  58  92 CALM      30.07F FOG
6HR MIN TEMP:  59; 6HR MAX TEMP:  70;


$$

LAZ014-016-220700-
NORTHEAST LOUISIANA

CITY           SKY/WX    TMP DP  RH WIND       PRES   REMARKS
MONROE         CLEAR     62  57  83 NE7       30.08S
6HR MIN TEMP:  58; 6HR MAX TEMP:  67; 6HR PCP:  0.01;

TALLULAH       CLEAR     59  56  89 NE5       30.08R
6HR MIN TEMP:  54; 6HR MAX TEMP:  64;


$$




USA.gov is the U.S. government's official web portal to all federal, state and local government web resources and services.